JR5IZI-13 Weather Reports


time (UTC)temp
F
wind
direction
speed
knots
gust
knots
rain 1hr
in
rain 24hr
in
rain mn
in
humidity
%
barometer
mb
20260504120245 62 0.0 0.0 0.00 0.00 0.00 51 1011.7
20260504110720 62 0.0 0.0 0.00 0.00 0.00 50 1010.8
20260504081723 64 0.0 0.0 0.00 0.00 0.00 51 1007.0
20260504080256 64 0.0 0.0 0.00 0.00 0.00 51 1006.8
20260504060127 64 0.0 0.0 0.00 0.00 0.00 47 1004.6
20260504045422 64 0.0 0.0 0.00 0.00 0.00 48 1003.6
20260504044133 64 0.0 0.0 0.00 0.00 0.00 49 1003.6
20260504042648 64 0.0 0.0 0.00 0.00 0.00 48 1003.2
20260504041419 64 0.0 0.0 0.00 0.00 0.00 49 1003.1
20260504035929 64 0.0 0.0 0.00 0.00 0.00 49 1002.8
20260504034716 64 0.0 0.0 0.00 0.00 0.00 49 1002.8
20260504033513 64 0.0 0.0 0.00 0.00 0.00 49 1002.7
20260504032133 64 0.0 0.0 0.00 0.00 0.00 49 1002.8
20260504030833 64 0.0 0.0 0.00 0.00 0.00 49 1002.6
20260504025557 64 0.0 0.0 0.00 0.00 0.00 49 1002.5
20260504024108 64 0.0 0.0 0.00 0.00 0.00 49 1002.2
20260504022617 64 0.0 0.0 0.00 0.00 0.00 49 1002.2
20260504021414 64 0.0 0.0 0.00 0.00 0.00 51 1002.5
20260504020002 64 0.0 0.0 0.00 0.00 0.00 52 1002.0
20260504014537 64 0.0 0.0 0.00 0.00 0.00 52 1002.0
20260504013248 64 0.0 0.0 0.00 0.00 0.00 54 1002.0
20260504011946 62 0.0 0.0 0.00 0.00 0.00 54 1002.2
20260504010505 62 0.0 0.0 0.00 0.00 0.00 54 1002.3
20260504005212 62 0.0 0.0 0.00 0.00 0.00 54 1002.3
20260504003717 62 0.0 0.0 0.00 0.00 0.00 55 1002.0
20260504002305 62 0.0 0.0 0.00 0.00 0.00 56 1002.0
20260504000924 62 0.0 0.0 0.00 0.00 0.00 56 1002.1
20260503235647 62 0.0 0.0 0.00 0.00 0.00 56 1001.8
20260503234318 62 0.0 0.0 0.00 0.00 0.00 57 1001.6
20260503232943 62 0.0 0.0 0.00 0.00 0.00 58 1001.3
20260503231632 62 0.0 0.0 0.00 0.00 0.00 58 1001.3
20260503230214 62 0.0 0.0 0.00 0.00 0.00 58 1001.1
20260503224738 62 0.0 0.0 0.00 0.00 0.00 59 1000.9
20260503223502 62 0.0 0.0 0.00 0.00 0.00 59 1000.8
20260503222010 62 0.0 0.0 0.00 0.00 0.00 62 1000.5
20260503220810 62 0.0 0.0 0.00 0.00 0.00 61 1000.3
20260503215605 62 0.0 0.0 0.00 0.00 0.00 61 1000.1
20260503214108 62 0.0 0.0 0.00 0.00 0.00 61 999.9
20260503212620 62 0.0 0.0 0.00 0.00 0.00 61 999.6
20260503211411 62 0.0 0.0 0.00 0.00 0.00 61 999.2
20260503210111 62 0.0 0.0 0.00 0.00 0.00 61 999.2
20260503204851 62 0.0 0.0 0.00 0.00 0.00 61 999.2
20260503203442 62 0.0 0.0 0.00 0.00 0.00 61 999.0
20260503202004 62 0.0 0.0 0.00 0.00 0.00 61 998.9
20260503200758 62 0.0 0.0 0.00 0.00 0.00 61 998.9
20260503195438 62 0.0 0.0 0.00 0.00 0.00 62 999.1
20260503194110 62 0.0 0.0 0.00 0.00 0.00 62 998.8
20260503192619 64 0.0 0.0 0.00 0.00 0.00 63 998.5
20260503191235 64 0.0 0.0 0.00 0.00 0.00 66 998.4
20260503185926 64 0.0 0.0 0.00 0.00 0.00 67 998.3
20260503184656 64 0.0 0.0 0.00 0.00 0.00 67 998.3
20260503183438 64 0.0 0.0 0.00 0.00 0.00 67 998.4
20260503182200 64 0.0 0.0 0.00 0.00 0.00 68 998.1
20260503180858 64 0.0 0.0 0.00 0.00 0.00 68 997.6
20260503175613 64 0.0 0.0 0.00 0.00 0.00 69 997.2
20260503174353 64 0.0 0.0 0.00 0.00 0.00 70 997.5
20260503172916 64 0.0 0.0 0.00 0.00 0.00 71 997.3
20260503171643 64 0.0 0.0 0.00 0.00 0.00 71 997.3
20260503170254 64 0.0 0.0 0.00 0.00 0.00 72 997.1